Regional Weather Roundup
Issued by NWS

Home | Current Version | Previous Version | Graphics & Text | Print | Product List | Glossary On
Versions: 1 2 3 4 5 6 7 8 9 10 11 12 13 14 15 16 17 18 19 20 21 22 23 24 25 26 27 28 29 30 31 32 33 34 35 36 37 38 39 40 41 42 43 44 45 46 47 48 49 50
000
ASUS43 KBIS 051610
RWRND

NORTH DAKOTA REGIONAL WEATHER ROUNDUP
NATIONAL WEATHER SERVICE BISMARCK ND
1000 AM CST FRI FEB 05 2016

NOTE: "FAIR" INDICATES FEW OR NO CLOUDS BELOW 12,000 FEET WITH NO
SIGNIFICANT WEATHER AND/OR OBSTRUCTIONS TO VISIBILITY.


NDZ001>003-009>011-017-051700-
NORTHWEST NORTH DAKOTA

CITY           SKY/WX    TMP DP  RH WIND       PRES   REMARKS
WILLISTON      SUNNY     18  15  88 S7        30.17F WCI   9
MINOT          PTSUNNY   23  14  68 SW5       30.14S WCI  17
MINOT AFB      SUNNY     23  18  81 CALM      30.13F
$$

NDZ018>021-031>035-040>046-051700-
SOUTHWEST NORTH DAKOTA

CITY           SKY/WX    TMP DP  RH WIND       PRES   REMARKS
BISMARCK       MOSUNNY   29  20  69 NW9       30.19R
DICKINSON      MOSUNNY   23  20  88 W16       30.15S WCI  10
GARRISON         N/A     23  17  78 W8        30.16S WCI  14
HETTINGER ARPT SUNNY     27  22  81 NW15      30.20R WCI  15
$$

NDZ004>008-012>016-024-026-027-054-051700-
NORTHEAST NORTH DAKOTA

CITY           SKY/WX    TMP DP  RH WIND       PRES   REMARKS
GRAND FORKS    MOSUNNY   20  14  77 SW3       30.13S
GRND FRKS AFB  SUNNY     19  14  79 W6        30.13S WCI  11
DEVILS LAKE    CLOUDY    15  12  88 NW7       30.14R WCI   5
$$

NDZ022-023-025-028>030-036>039-047>053-051700-
SOUTHEAST NORTH DAKOTA

CITY           SKY/WX    TMP DP  RH WIND       PRES   REMARKS
FARGO          CLOUDY    21  17  84 S10       30.15S WCI  10
JAMESTOWN      CLOUDY    25  18  74 NW12      30.12R WCI  14
$$




USA.gov is the U.S. government's official web portal to all federal, state and local government web resources and services.